Regional Weather Roundup
Issued by NWS

Home | Current Version | Previous Version | Graphics & Text | Print | Product List | Glossary Off
Versions: 1 2 3 4 5 6 7 8 9 10 11 12 13 14 15 16 17 18 19 20 21 22 23 24 25 26 27 28 29 30 31 32 33 34 35 36 37 38 39 40 41 42 43 44 45 46 47 48 49 50

000
ASUS43 KDMX 172201
RWRIA

WEATHER ROUNDUP FOR IOWA
NATIONAL WEATHER SERVICE DES MOINES IA
500 PM CDT THU AUG 17 2017

NOTE: "FAIR" INDICATES FEW OR NO CLOUDS BELOW 12,000 FEET WITH NO
SIGNIFICANT WEATHER AND/OR OBSTRUCTIONS TO VISIBILITY.

* - THESE STATIONS ARE NOT NWS STATIONS...THUS NOT UNDER NWS
QUALITY CONTROL.  THEY ALSO DO NOT REPORT WEATHER SUCH
AS PRECIPITATION OR FOG.

IAZ001>003-012>014-020>022-031>034-043>046-172300-
   NORTHWEST IOWA

CITY           SKY/WX    TMP DP  RH WIND       PRES   REMARKS
CARROLL *      SUNNY     79  63  57 NW10G20   29.88R HX  80
CHEROKEE *     SUNNY     80  59  48 NW12      29.88S HX  80
DENISON *      SUNNY     79  59  50 W14       29.91S HX  80
LE MARS *      SUNNY     79  59  50 NW10G16   29.89S HX  80
ORANGE CITY *  SUNNY     79  63  57 NW14      29.89S HX  80
SHELDON *      SUNNY     77  63  61 NW13      29.87S
SIOUX CITY     SUNNY     81  61  50 NW7       29.89S HX  82
SPENCER        MOSUNNY   80  62  54 NW17      29.86S HX  81
STORM LAKE *   SUNNY     77  61  57 NW14G21   29.88S
$$

IAZ055>058-069>071-079>083-090>094-172300-
   SOUTHWEST IOWA

CITY           SKY/WX    TMP DP  RH WIND       PRES   REMARKS
ATLANTIC *     SUNNY     79  61  53 NW14      29.90S HX  80
AUDUBON *      SUNNY     79  59  50 NW9G17    29.90S HX  80
CLARINDA *     SUNNY     82  61  47 W9        29.93F HX  83
COUNCIL BLFS * SUNNY     81  59  47 NW15      29.92S HX  81
CRESTON *      SUNNY     81  59  47 W13G23    29.91S HX  81
HARLAN  *      SUNNY     79  63  57 W13       29.94R HX  80
LAMONI         SUNNY     82  60  47 W16G26    29.89S HX  82
RED OAK *      SUNNY     81  59  47 NW10      29.91S HX  81
SHENANDOAH *   SUNNY     81  59  47 W12G17    29.92F HX  81
$$

IAZ047>049-059>061-072>074-084-172300-
   CENTRAL IOWA

CITY           SKY/WX    TMP DP  RH WIND       PRES   REMARKS
AMES           PTSUNNY   76  65  68 NW14      29.85R
ANKENY *       MOSUNNY   81  63  54 NW15G22   29.85S HX  82
BOONE *        MOSUNNY   77  64  65 NW14G21   29.85S
CHARITON *     SUNNY     81  59  47 NW14G24   29.86S HX  81
DES MOINES     MOSUNNY   82  59  45 W21       29.84S HX  82
GRINNELL*      PTSUNNY   76  64  67 W13G18    29.85S
KNOXVILLE *    MOSUNNY   81  59  47 W14G20    29.84R HX  81
MARSHALLTOWN   CLOUDY    75  64  68 W16G23    29.83R
NEWTON *       MOSUNNY   79  64  61 NW13G20   29.84S HX  81
PELLA *        MOSUNNY   82  61  49 W17G23    29.85S HX  83
PERRY *          N/A     80  64  56 NW10G20   29.86S HX  82
$$

IAZ004>006-015-016-023>025-035-036-172300-
   NORTH CENTRAL IOWA

CITY           SKY/WX    TMP DP  RH WIND       PRES   REMARKS
ALGONA *       PTSUNNY   77  64  65 NW15G21   29.84S
CLARION *      PTSUNNY   75  66  73 NW13      29.84S
ESTHERVILLE    MOSUNNY   76  64  66 NW14G22   29.83F
FORT DODGE *   CLOUDY    75  63  64 W8        29.85S
MASON CITY     MOSUNNY   74  62  66 NW20      29.83R
FOREST CITY *  CLOUDY    72  63  73 NW14      29.83R
WEBSTER CITY * PTSUNNY   75  64  69 NW10G18   29.83S
IOWA FALLS *   CLOUDY    74  65  73 W14G20    29.85R
$$

IAZ007>011-017>019-026>030-037>042-050>054-066-172300-
   NORTHEAST IOWA

CITY           SKY/WX    TMP DP  RH WIND       PRES   REMARKS
CEDAR RAPIDS   CLOUDY    77  66  68 W18       29.79S
CHARLES CITY * PTSUNNY   73  64  73 W18G24    29.79R
CLINTON *      CLOUDY    77  67  71 W17G28    29.77R
DECORAH *      PTSUNNY   72  64  78 NW12G18   29.74S
DUBUQUE        CLOUDY    74  63  68 W15G26    29.76R
MONTICELLO *   CLOUDY    75  64  69 W14G22    29.77S
OELWEIN *      CLOUDY    73  64  73 W15G25    29.79S
WATERLOO       PTSUNNY   76  62  62 W14       29.79R
$$

IAZ064-065-067-068-078-172300-
   EAST CENTRAL IOWA

CITY           SKY/WX    TMP DP  RH WIND       PRES   REMARKS
DAVENPORT      MOSUNNY   79  64  60 W18G28    29.80R HX  81
IOWA CITY      MOSUNNY   80  64  58 W16G25    29.81S HX  82
MUSCATINE *    CLOUDY    82  64  54 W18       29.80S HX  84
QUAD CITIES    SUNNY     82  64  54 W18G26    29.77S HX  83
$$

IAZ062-063-075>077-085>089-095>099-172300-
   SOUTHEAST IOWA

CITY           SKY/WX    TMP DP  RH WIND       PRES   REMARKS
BURLINGTON     MOSUNNY   83  64  52 NW10G20   29.81R HX  84
FAIRFIELD *    HAZE      81  61  50 NW14      29.82F VSB 1/4 HX  81
FORT MADISON * MOSUNNY   82  63  51 W13G21    29.82S HX  83
KEOKUK *       SUNNY     84  59  42 W21       29.81S HX  84
OSKALOOSA *      N/A     80  61  52 NW15G23   29.84S HX  81
OTTUMWA        PTSUNNY   84  61  45 NW12      29.83S HX  84
WASHINGTON *   CLOUDY    77  66  69 W14G21    29.83S
$$

ABBREVIATIONS USED IN REMARKS
   TC - TEMPERATURES IN CELSIUS
  WCI - WIND CHILL INDEX
   HX - HEAT INDEX
  VSB - VISIBILITY
$$





USA.gov is the U.S. government's official web portal to all federal, state and local government web resources and services.